Regional Weather Roundup
Issued by NWS Charleston, WV

Home | Current Version | Previous Version | Graphics & Text | Print | Product List | Glossary On
Versions: 1 2 3 4 5 6 7 8 9 10 11 12 13 14 15 16 17 18 19 20 21 22 23 24 25 26 27 28 29 30 31 32 33 34 35 36 37 38 39 40 41 42 43 44 45 46 47 48 49 50
000
ASUS41 KRLX 281510
RWRRLX
West Virginia Regional Weather Roundup
National Weather Service Charleston WV
1000 AM EST SAT FEB 28 2015

Note: "fair" indicates few or no clouds below 12,000 feet with no
significant weather and/or obstructions to visibility.

WVZ003-281600-
Northern Panhandle of West Virginia

CITY           SKY/WX    TMP DP  RH WIND       PRES   REMARKS
WHEELING       SUNNY     14  -1  51 E7        30.74R WCI   4
$$

WVZ009-281600-
Northwest West Virginia

CITY           SKY/WX    TMP DP  RH WIND       PRES   REMARKS
PARKERSBURG    PTSUNNY   18   3  52 E7        30.76F WCI   9
$$

WVZ006-281600-
Western West Virginia

CITY           SKY/WX    TMP DP  RH WIND       PRES   REMARKS
HUNTINGTON       N/A     21   8  57 CALM      30.71R
$$

WVZ015-281600-
West Central West Virginia

CITY           SKY/WX    TMP DP  RH WIND       PRES   REMARKS
CHARLESTON     PTSUNNY   22   8  55 N5        30.69S
$$

WVZ022-031-281600-
North Central West Virginia

CITY           SKY/WX    TMP DP  RH WIND       PRES   REMARKS
CLARKSBURG     SUNNY     17   4  56 E6        30.70F WCI   9
MORGANTOWN     SUNNY     19   0  43 NE6       30.73F
$$

WVZ025-035-042-045-281600-
Southern West Virginia

CITY           SKY/WX    TMP DP  RH WIND       PRES   REMARKS
BECKLEY        SUNNY     20   7  57 SE13      30.57S WCI   7
LOGAN          PTSUNNY   23   9  54 CALM      30.59S
BLUEFIELD      SUNNY     24   8  50 S9        30.56R
LEWISBURG      SUNNY     17   4  56 N7        30.64R WCI   8
$$

WVZ047-281600-
Northern Mountains of West Virginia

CITY           SKY/WX    TMP DP  RH WIND       PRES   REMARKS
ELKINS         MOSUNNY   11   3  70 CALM      30.65F
$$

WVZ052-281600-
Eastern Panhandle of West Virginia

CITY           SKY/WX    TMP DP  RH WIND       PRES   REMARKS
MARTINSBURG    SUNNY     22  -1  36 NE5       30.83R
PETERSBURG     SUNNY     19  -1  41 CALM      30.79F
$$


USA.gov is the U.S. government's official web portal to all federal, state and local government web resources and services.